Rbgn^[z[y[W
メイン
   新天体発見情報
     Comet C/2020 F3 (NEOWISE)
投稿するにはまず登録を

スレッド表示 | 新しいものから 前のトピック | 次のトピック | 下へ
投稿者 スレッド
佐藤裕久
投稿日時: 2020-5-5 14:32
モデレータ
登録日: 2005-6-12
居住地: 日本
投稿: 2087
オンライン
Comet C/2020 F3 (NEOWISE)

NEOWISE (C51)により、J. Masieroは、3月31日UT、この天体が明白な彗星活動のきざし
を見せたことを通報した。
小惑星センターのPCCP webpageに公表後、佐藤英貴氏(東京都文京区, iTelescope天文台, 
3月31.4日UT、60秒露出12枚のスタック, 0.51-m f/6.8 アストログラフ, Siding Spring, 
NSW, 遠隔操作:強く集光した45" の外側のコマがあるが尾はない。23".0の円形範囲で測
定した光度は15.9等であった)らによって彗星状と観測された。

彗星機能の追加報告は次の通り:

OC   Date        Reporter           Coma    Tail    PA          Exposures
E10  2020-03-31  P. Breitenstein     8"     17"     110         10x40s
Q62  2020-03-31  H. Sato            45"                         12x60s
323  2020-03-31  P. Camilleri       10"                          8x30s
Q62  2020-03-31  E. Guido            1'     20"     115         14x60s
Q62  2020-03-31  K. Yoshimoto       1'.1            110          8x60s
I47  2020-04-01  M. Masek           0'.6                        40x60s

発見位置は次のとおり、

     2020 UT             R.A. (2000) Decl.        Mag.
     Mar. 27.71352    7 00 39.56   -48 50 52.1     17
          27.84442    7 00 17.78   -48 45 28.9
          27.90974    7 00 06.95   -48 42 46.6
          28.04065    6 59 45.30   -48 37 21.9
          28.10597    6 59 34.50   -48 34 40.3
          28.23675    6 59 13.05   -48 29 14.6
          28.23687    6 59 13.00   -48 29 14.7
          28.30220    6 59 02.33   -48 26 31.8
          28.43297    6 58 41.04   -48 21 05.4
          28.43310    6 58 40.99   -48 21 05.2

MPCの楕円軌道要素と位置推算表は次のとおり、

Orbital elements:
    C/2020 F3 (NEOWISE)                                                         
Epoch 2020 July 10.0 TT = JDT 2459040.5                                         
T 2020 July 3.54606 TT                                  Rudenko                 
q   0.2904006            (2000.0)            P               Q                  
z  +0.0093622      Peri.   37.60259     +0.72080407     +0.13797689             
 +/-0.0073262      Node    60.86462     +0.27480541     -0.95656333             
e   0.9972812      Incl.  128.95285     +0.63633598     +0.25680533             
From 64 observations 2020 Mar. 27-Apr. 1, mean residual 0".3.                   
                                                                                
    C/2020 F3 (NEOWISE)                                                         
Epoch 2020 May 31.0 TT = JDT 2459000.5                                          
T 2020 July 3.54605 TT                                  Rudenko                 
q   0.2903990            (2000.0)            P               Q                  
z  +0.0093684      Peri.   37.60287     +0.72080686     +0.13797202             
 +/-0.0073262      Node    60.86445     +0.27479880     -0.95656513             
e   0.9972794      Incl.  128.95294     +0.63633567     +0.25680122             
From 64 observations 2020 Mar. 27-Apr. 1, mean residual 0".3.                   
                                                                                
Ephemeris:
Date    TT    R. A. (2000) Decl.     Delta      r    Elong.  Phase   m1
2020 03 02    08 48 36.3 -61 10 41   1.9783  2.4646   107.5    22.6  17.9
...
2020 03 17    07 37 05.0 -55 27 44   1.7847  2.2433   104.0    25.5  17.3
...
2020 03 25    07 08 37.7 -50 40 14   1.7133  2.1213    99.6    27.6  16.9
...
2020 03 31    06 52 05.0 -46 32 32   1.6741  2.0279    95.3    29.4  16.7
2020 04 01    06 49 41.5 -45 49 20   1.6687  2.0121    94.6    29.7  16.6
2020 04 02    06 47 23.8 -45 05 43   1.6636  1.9963    93.8    30.0  16.6
...
2020 04 08    06 35 30.7 -40 37 04   1.6393  1.9003    88.6    31.8  16.4
...
2020 04 16    06 23 56.2 -34 29 46   1.6213  1.7692    81.1    34.1  16.0
...
2020 05 01    06 11 33.4 -23 13 41   1.6174  1.5119    65.6    37.4  15.3

(MPEC 2020-G05、CBET 4740)

スレッド表示 | 新しいものから 前のトピック | 次のトピック | トップ

投稿するにはまず登録を
 
© 1999 Tsutomu Seki.